Погода в Кичере

Россия / Республика Бурятия     55°56′25″N   110°06′12″E
темп.,
°C
ветер,
м/с
пор.,
м/с
влажн.,
%
обл.,
%
осадки,
мм/ч
давл.,
гПа
погр.,
м
24 июля, сб
сб2423:00+13ссз337867 0.0 100932
02:00+11с3385100 0.0 101041
05:00+12ссз338380 0.0 101050
08:00+16с236874 0.0 1010431
11:00+18ссв356019 0.0 1010905
14:00+22ссв354179 0.0 10091974
17:00+20св264481 0.0 10101812
20:00+17ссв23626 0.0 101150
25 июля, вс
вс2523:00+13с337090 0.0 101134
02:00+13с44710 0.0 101235
05:00+12с447267 0.0 101149
08:00+19св345137 0.0 1010732
11:00+22в353839 0.0 10092030
14:00+23вюв343553 0.0 10082388
17:00+22св444058 0.0 10091623
20:00+19всв125822 0.0 100924
26 июля, пн
пн2623:00+15ссв336224 0.0 101024
02:00+14с326411 0.0 101021
05:00+14ссв336293 0.0 101022
08:00+19вюв115140 0.0 1009390
11:00+22ююв22435 0.0 10081433
14:00+23ю32399 0.0 10071754
17:00+21ююз32455 0.0 1007756
20:00+16ююв116734 0.0 100827
27 июля, вт
вт2723:00+15св016697 0.0 100811
02:00+13с007062 0.0 100810
05:00+13св11704 0.0 100811
08:00+19в12541 0.0 1007376
11:00+22юв22481 0.0 10051249
14:00+24ю33406 0.1 10041909
17:00+21ююз215245 0.0 1003421
20:00+17ююз117034 0.0 100421
28 июля, ср
ср2823:00+15ю007648 0.0 100411
02:00+13ссв11795 0.0 100411
05:00+13всв118030 0.0 100311
08:00+19ююв105950 0.0 1003304
11:00+22ю224939 0.1 10021080
14:00+24ююз224472 0.3 10001622
17:00+20зюз125847 0.4 1001593
20:00+16ююв007883 0.5 100126